TimeHST,TemperatureF,Dew PointF,Humidity,Sea Level PressureIn,VisibilityMPH,Wind Direction,Wind SpeedMPH,Gust SpeedMPH,PrecipitationIn,Events,Conditions,WindDirDegrees,DateUTC
12:53 AM,73.9,64.0,71,30.02,10.0,East,4.6,-,N/A,,Clear,90,2011-10-19 10:53:00
1:53 AM,73.9,63.0,68,30.01,10.0,East,5.8,-,N/A,,Clear,90,2011-10-19 11:53:00
2:53 AM,73.0,64.0,73,29.99,10.0,East,4.6,-,N/A,,Clear,90,2011-10-19 12:53:00
3:53 AM,73.0,62.1,68,29.98,10.0,East,6.9,-,N/A,,Clear,90,2011-10-19 13:53:00
4:53 AM,73.0,64.0,73,29.99,10.0,East,5.8,-,N/A,,Partly Cloudy,100,2011-10-19 14:53:00
5:53 AM,73.0,63.0,71,30.01,10.0,East,5.8,-,N/A,,Clear,90,2011-10-19 15:53:00
6:53 AM,73.0,62.1,68,30.02,10.0,East,5.8,-,N/A,,Clear,90,2011-10-19 16:53:00
7:53 AM,78.1,66.0,66,30.04,10.0,Calm,Calm,-,N/A,,Clear,0,2011-10-19 17:53:00
8:53 AM,79.0,66.9,66,30.05,10.0,WSW,4.6,-,N/A,,Partly Cloudy,250,2011-10-19 18:53:00
9:53 AM,80.1,66.9,64,30.05,10.0,WSW,8.1,-,N/A,,Clear,240,2011-10-19 19:53:00
10:53 AM,81.0,66.9,62,30.03,10.0,SW,9.2,-,N/A,,Clear,230,2011-10-19 20:53:00
11:53 AM,82.0,66.9,60,30.01,10.0,West,8.1,-,N/A,,Clear,260,2011-10-19 21:53:00
12:53 PM,84.0,66.0,55,29.98,10.0,WSW,9.2,-,N/A,,Clear,250,2011-10-19 22:53:00
1:53 PM,82.9,66.0,56,29.96,10.0,West,10.4,-,N/A,,Clear,260,2011-10-19 23:53:00
2:53 PM,82.9,66.9,58,29.95,10.0,WSW,13.8,-,N/A,,Clear,250,2011-10-20 00:53:00
3:53 PM,82.0,66.9,60,29.95,10.0,WSW,10.4,-,N/A,,Clear,240,2011-10-20 01:53:00
4:53 PM,81.0,64.9,58,29.96,10.0,SSW,8.1,-,N/A,,Clear,210,2011-10-20 02:53:00
5:53 PM,80.1,63.0,56,29.97,10.0,South,9.2,-,N/A,,Clear,170,2011-10-20 03:53:00
6:53 PM,80.1,64.0,58,29.99,10.0,SSE,9.2,-,N/A,,Partly Cloudy,160,2011-10-20 04:53:00
7:53 PM,79.0,66.0,64,30.01,10.0,ESE,8.1,-,N/A,,Overcast,120,2011-10-20 05:53:00
8:53 PM,78.1,66.0,66,30.03,10.0,East,4.6,-,N/A,,Clear,90,2011-10-20 06:53:00
9:53 PM,77.0,64.9,66,30.03,10.0,ESE,6.9,-,N/A,,Clear,120,2011-10-20 07:53:00
10:53 PM,75.9,64.9,69,30.02,10.0,SE,3.5,-,N/A,,Clear,140,2011-10-20 08:53:00
11:53 PM,75.9,64.0,67,30.02,10.0,Calm,Calm,-,N/A,,Partly Cloudy,0,2011-10-20 09:53:00